Location: Bishop�s Knoyle
(51.0728°N, 2.1714°W)
Time: 05:56:31
(UTC+00:00)

CENTAUR R/B - Pass Details

Date: 20 January 2021
Orbit: 742 x 1446 km, 63.5° (Epoch: 02 March)

Event Time Altitude Azimuth Distance (km) Brightness Sun altitude
Rises 07:14:40 0° 200° (SSW) 3,395 5.4 -7.3°
Reaches altitude 10° 07:17:02 10° 195° (SSW) 2,540 4.8 -6.9°
Maximum altitude 07:22:42 50° 121° (ESE) 1,247 3.7 -6.1°
Drops below altitude 10° 07:29:28 10° 49° (NE) 3,020 5.4 -5.2°
Sets 07:32:30 0° 45° (NE) 4,096 6.0 -4.7°
